TimeEST,TemperatureF,Dew PointF,Humidity,Sea Level PressureIn,VisibilityMPH,Wind Direction,Wind SpeedMPH,Gust SpeedMPH,PrecipitationIn,Events,Conditions,WindDirDegrees,DateUTC
12:06 AM,17.6,15.8,93,30.00,2.0,North,3.5,-,0.00,Snow,Light Snow,350,2000-01-23 05:06:00
12:35 AM,17.6,15.8,93,29.99,4.0,Calm,Calm,-,0.00,Snow,Light Snow,0,2000-01-23 05:35:00
12:53 AM,17.1,17.1,100,30.05,5.0,Calm,Calm,-,0.00,Snow,Light Snow,0,2000-01-23 05:53:00
1:11 AM,17.6,17.6,100,30.00,2.0,North,3.5,-,0.00,Snow,Light Snow,350,2000-01-23 06:11:00
1:25 AM,17.6,17.6,100,29.99,3.0,North,3.5,-,0.00,Snow,Light Snow,350,2000-01-23 06:25:00
1:53 AM,18.0,17.1,96,30.05,6.0,North,3.5,-,0.00,Snow,Light Snow,350,2000-01-23 06:53:00
2:27 AM,19.4,17.6,93,29.98,5.0,Calm,Calm,-,0.01,Snow,Light Snow,0,2000-01-23 07:27:00
2:53 AM,19.0,18.0,96,30.03,9.0,Calm,Calm,-,0.01,Snow,Light Snow,0,2000-01-23 07:53:00
3:53 AM,19.9,19.0,96,30.03,9.0,Calm,Calm,-,0.00,Snow,Light Snow,0,2000-01-23 08:53:00
4:53 AM,19.0,19.0,100,30.04,9.0,Calm,Calm,-,0.00,Snow,Light Snow,0,2000-01-23 09:53:00
5:08 AM,19.4,19.4,100,29.97,9.0,Calm,Calm,-,0.00,Snow,Light Snow,0,2000-01-23 10:08:00
6:34 AM,21.2,21.2,100,29.98,5.0,Calm,Calm,-,0.00,Snow,Light Snow,0,2000-01-23 11:34:00
6:53 AM,21.0,21.0,100,30.05,4.0,Calm,Calm,-,0.00,Snow,Light Snow,0,2000-01-23 11:53:00
7:34 AM,21.2,21.2,100,29.98,2.5,South,3.5,-,0.00,Snow,Light Snow,190,2000-01-23 12:34:00
7:42 AM,21.2,21.2,100,29.98,3.0,Calm,Calm,-,0.00,Snow,Light Snow,0,2000-01-23 12:42:00
7:53 AM,21.0,21.0,100,30.04,3.0,SSW,5.8,-,0.00,Snow,Light Snow,210,2000-01-23 12:53:00
8:00 AM,21.2,21.2,100,29.98,2.5,Calm,Calm,-,0.00,Snow,Light Snow,0,2000-01-23 13:00:00
8:53 AM,23.0,23.0,100,30.05,2.5,Calm,Calm,-,0.00,Snow,Light Snow,0,2000-01-23 13:53:00
9:08 AM,26.6,26.6,100,30.00,3.0,South,5.8,-,0.00,Snow,Light Snow,190,2000-01-23 14:08:00
9:53 AM,26.1,26.1,100,30.06,2.0,South,5.8,-,0.00,Snow,Light Snow,190,2000-01-23 14:53:00
10:14 AM,26.6,26.6,100,30.00,3.0,Calm,Calm,-,0.00,Snow,Light Snow,0,2000-01-23 15:14:00
10:53 AM,28.0,28.0,100,30.06,8.0,SW,4.6,-,0.00,,Overcast,220,2000-01-23 15:53:00
11:53 AM,30.0,30.0,100,30.04,6.0,WSW,5.8,-,N/A,,Haze,250,2000-01-23 16:53:00
12:53 PM,30.2,30.2,100,30.04,6.0,WSW,6.9,-,N/A,,Haze,240,2000-01-23 17:53:00
1:53 PM,30.9,30.0,96,30.03,10.0,SSW,8.1,-,N/A,,Overcast,210,2000-01-23 18:53:00
2:53 PM,32.0,30.0,92,30.02,10.0,SW,5.8,-,N/A,,Overcast,220,2000-01-23 19:53:00
3:00 PM,32.0,30.2,93,29.97,10.0,SSW,4.6,-,N/A,,Overcast,210,2000-01-23 20:00:00
3:53 PM,32.0,30.9,96,30.03,10.0,Variable,5.8,-,N/A,,Overcast,0,2000-01-23 20:53:00
4:53 PM,32.0,30.0,92,30.04,10.0,Variable,5.8,-,N/A,,Overcast,0,2000-01-23 21:53:00
5:53 PM,32.0,30.0,92,30.04,10.0,SW,9.2,-,N/A,,Overcast,220,2000-01-23 22:53:00
6:53 PM,33.1,30.9,92,30.06,10.0,SW,3.5,-,N/A,,Overcast,230,2000-01-23 23:53:00
7:53 PM,32.0,30.9,96,30.06,10.0,SSW,3.5,-,N/A,,Overcast,210,2000-01-24 00:53:00
8:53 PM,32.0,30.0,92,30.05,10.0,WSW,5.8,-,N/A,,Overcast,240,2000-01-24 01:53:00
9:53 PM,32.0,30.0,92,30.05,10.0,WSW,4.6,-,N/A,,Overcast,250,2000-01-24 02:53:00
10:53 PM,32.0,30.0,92,30.07,10.0,Calm,Calm,-,N/A,,Overcast,0,2000-01-24 03:53:00
11:53 PM,32.0,30.0,92,30.07,10.0,Variable,4.6,-,N/A,,Overcast,0,2000-01-24 04:53:00